Block Island, RI

6:25 PM EDT on August 27, 2016 (GMT -0400)
Block Island State

Weather History for KBID - August, 2014

Change the Weather History Date:

Wednesday, August 27, 2014

  Actual Average Record
Temperature  
Mean Temperature 72 °F -  
Max Temperature 78 °F 75 °F 95 °F (1948)
Min Temperature 66 °F 64 °F 54 °F (1954)
Cooling Degree Days 7    
Growing Degree Days 22 (Base 50)    
Moisture  
Dew Point 64 °F    
Average Humidity 78    
Maximum Humidity 94    
Minimum Humidity 54    
Precipitation  
Precipitation 0.00 in - - ()
Sea Level Pressure  
Sea Level Pressure 29.98 in    
Wind  
Wind Speed 11 mph (SW)    
Max Wind Speed 20 mph    
Max Gust Speed 24 mph    
Visibility 10 miles    
Events      
Averages and records for this station are not official NWS values.
T = Trace of Precipitation, MM = Missing Value Source: NWS Daily Summary

Daily Weather History Graph

Daily Weather History Graph

Search for Another Location

Airport or City:

Trip Planner

Search our weather history database for the weather conditions in past years. The results will help you decide how hot, cold, wet, or windy it might be!

Date:

Astronomy

Aug. 27, 2014 Rise Set
Actual Time 6:07 AM EDT 7:27 PM EDT
Civil Twilight 5:39 AM EDT 7:55 PM EDT
Nautical Twilight 5:04 AM EDT 8:29 PM EDT
Astronomical Twilight 4:28 AM EDT 9:06 PM EDT
Moon 8:02 AM EDT 8:15 PM EDT
Length of Visible Light 14h 16m
Length of Day
13h 19m
Waxing Crescent, 4% of the Moon is Illuminated
Aug 27
Waxing Crescent
Sep 2
First Quarter
Sep 8
Full
Sep 15
Last Quarter
Sep 24
New

Hourly Weather History & Observations

Time (EDT) Temp. Dew Point Humidity Pressure Visibility Wind Dir Wind Speed Gust Speed Precip Events Conditions
12:35 AM 68.0 °F 62.6 °F 83% 30.09 in 10.0 mi SW 9.2 mph - N/A   Clear
1:15 AM 66.2 °F 62.6 °F 88% 30.07 in 10.0 mi WSW 6.9 mph - N/A   Clear
1:35 AM 66.2 °F 62.6 °F 88% 30.06 in 10.0 mi SW 8.1 mph - N/A   Clear
1:55 AM 66.2 °F 62.6 °F 88% 30.06 in 10.0 mi SW 8.1 mph - N/A   Clear
2:15 AM 66.2 °F 62.6 °F 88% 30.06 in 10.0 mi WSW 8.1 mph - N/A   Clear
2:35 AM 66.2 °F 62.6 °F 88% 30.05 in 10.0 mi WSW 6.9 mph - N/A   Clear
2:55 AM 66.2 °F 62.6 °F 88% 30.05 in 10.0 mi West 8.1 mph - N/A   Clear
3:15 AM 66.2 °F 62.6 °F 88% 30.05 in 10.0 mi West 8.1 mph - N/A   Clear
3:35 AM 66.2 °F 62.6 °F 88% 30.04 in 10.0 mi West 8.1 mph - N/A   Clear
3:55 AM 66.2 °F 62.6 °F 88% 30.03 in 10.0 mi WSW 8.1 mph - N/A   Clear
4:15 AM 66.2 °F 62.6 °F 88% 30.04 in 10.0 mi WSW 9.2 mph - N/A   Clear
4:35 AM 66.2 °F 62.6 °F 88% 30.03 in 10.0 mi WSW 9.2 mph - N/A   Clear
4:55 AM 66.2 °F 62.6 °F 88% 30.03 in 10.0 mi West 9.2 mph - N/A   Clear
5:15 AM 66.2 °F 62.6 °F 88% 30.03 in 10.0 mi West 8.1 mph - N/A   Clear
5:35 AM 66.2 °F 62.6 °F 88% 30.04 in 10.0 mi West 8.1 mph - N/A   Clear
5:55 AM 66.2 °F 62.6 °F 88% 30.04 in 10.0 mi WSW 8.1 mph - N/A   Clear
6:15 AM 66.2 °F 62.6 °F 88% 30.04 in 10.0 mi SSW 8.1 mph - N/A   Clear
6:35 AM 66.2 °F 62.6 °F 88% 30.04 in 10.0 mi SSW 9.2 mph - N/A   Clear
6:55 AM 66.2 °F 64.4 °F 94% 30.04 in 10.0 mi SSW 9.2 mph - N/A   Clear
7:15 AM 68.0 °F 64.4 °F 88% 30.04 in 10.0 mi SSW 11.5 mph - N/A   Clear
7:35 AM 69.8 °F 64.4 °F 83% 30.05 in 10.0 mi SSW 12.7 mph - N/A   Clear
7:55 AM 69.8 °F 64.4 °F 83% 30.06 in 10.0 mi SSW 13.8 mph - N/A   Clear
8:15 AM 69.8 °F 64.4 °F 83% 30.06 in 10.0 mi SSW 13.8 mph - N/A   Clear
8:35 AM 71.6 °F 64.4 °F 78% 30.06 in 10.0 mi SSW 12.7 mph 19.6 mph N/A   Clear
8:55 AM 71.6 °F 64.4 °F 78% 30.05 in 10.0 mi SSW 15.0 mph - N/A   Clear
9:15 AM 71.6 °F 66.2 °F 83% 30.05 in 10.0 mi SSW 13.8 mph 19.6 mph N/A   Clear
9:35 AM 73.4 °F 66.2 °F 78% 30.04 in 10.0 mi SW 15.0 mph 19.6 mph N/A   Clear
9:55 AM 73.4 °F 64.4 °F 73% 30.04 in 10.0 mi SW 17.3 mph - N/A   Clear
10:15 AM 73.4 °F 66.2 °F 78% 30.04 in 10.0 mi SW 15.0 mph 20.7 mph N/A   Clear
10:35 AM 75.2 °F 66.2 °F 73% 30.04 in 10.0 mi SW 13.8 mph - N/A   Clear
11:15 AM 75.2 °F 64.4 °F 69% 30.03 in 10.0 mi SW 15.0 mph 20.7 mph N/A   Clear
11:35 AM 75.2 °F 64.4 °F 69% 30.02 in 10.0 mi SW 15.0 mph - N/A   Clear
11:55 AM 75.2 °F 64.4 °F 69% 30.01 in 10.0 mi SW 17.3 mph 21.9 mph N/A   Clear
12:15 PM 77.0 °F 64.4 °F 65% 30.01 in 10.0 mi SW 15.0 mph - N/A   Clear
12:35 PM 77.0 °F 64.4 °F 65% 30.00 in 10.0 mi SW 17.3 mph 21.9 mph N/A   Clear
12:55 PM 77.0 °F 64.4 °F 65% 30.00 in 10.0 mi SW 19.6 mph 23.0 mph N/A   Clear
1:15 PM 75.2 °F 64.4 °F 69% 29.99 in 10.0 mi SW 16.1 mph 23.0 mph N/A   Clear
1:35 PM 75.2 °F 64.4 °F 69% 29.99 in 10.0 mi SW 17.3 mph 23.0 mph N/A   Clear
1:55 PM 75.2 °F 66.2 °F 73% 29.98 in 10.0 mi SW 18.4 mph 23.0 mph N/A   Clear
2:15 PM 75.2 °F 64.4 °F 69% 29.97 in 10.0 mi SW 16.1 mph - N/A   Clear
2:35 PM 77.0 °F 64.4 °F 65% 29.96 in 10.0 mi SW 17.3 mph 24.2 mph N/A   Clear
2:55 PM 77.0 °F 66.2 °F 69% 29.96 in 10.0 mi SW 15.0 mph - N/A   Clear
3:15 PM 77.0 °F 64.4 °F 65% 29.95 in 10.0 mi SW 15.0 mph 19.6 mph N/A   Clear
3:35 PM 75.2 °F 66.2 °F 73% 29.94 in 10.0 mi SW 15.0 mph 20.7 mph N/A   Clear
3:55 PM 77.0 °F 64.4 °F 65% 29.94 in 10.0 mi SW 17.3 mph - N/A   Clear
4:15 PM 78.8 °F 60.8 °F 54% 29.93 in 10.0 mi SW 15.0 mph 19.6 mph N/A   Clear
4:35 PM 75.2 °F 66.2 °F 73% 29.93 in 10.0 mi SSW 12.7 mph 20.7 mph N/A   Clear
4:55 PM 75.2 °F 64.4 °F 69% 29.93 in 10.0 mi SW 16.1 mph - N/A   Clear
5:15 PM 75.2 °F 64.4 °F 69% 29.92 in 10.0 mi SSW 13.8 mph 19.6 mph N/A   Clear
5:35 PM 73.4 °F 66.2 °F 78% 29.91 in 10.0 mi SSW 15.0 mph - N/A   Clear
5:55 PM 73.4 °F 66.2 °F 78% 29.91 in 10.0 mi SSW 12.7 mph - N/A   Clear
6:15 PM 71.6 °F 66.2 °F 83% 29.91 in 10.0 mi SSW 12.7 mph - N/A   Clear
6:35 PM 73.4 °F 64.4 °F 73% 29.90 in 10.0 mi SW 12.7 mph 19.6 mph N/A   Clear
6:55 PM 71.6 °F 60.8 °F 69% 29.90 in 10.0 mi SSW 13.8 mph - N/A   Clear
7:15 PM 71.6 °F 57.2 °F 60% 29.90 in 10.0 mi SSW 11.5 mph - N/A   Clear
7:35 PM 71.6 °F 60.8 °F 69% 29.91 in 10.0 mi SW 11.5 mph - N/A   Clear
7:55 PM 71.6 °F 62.6 °F 73% 29.91 in 10.0 mi SSW 11.5 mph - N/A   Clear
8:15 PM 71.6 °F 62.6 °F 73% 29.92 in 10.0 mi SSW 9.2 mph - N/A   Clear
8:35 PM 69.8 °F 62.6 °F 78% 29.92 in 10.0 mi SSW 10.4 mph - N/A   Clear
8:55 PM 69.8 °F 62.6 °F 78% 29.92 in 10.0 mi SSW 11.5 mph - N/A   Clear
9:15 PM 69.8 °F 62.6 °F 78% 29.91 in 10.0 mi SSW 10.4 mph - N/A   Clear
9:35 PM 69.8 °F 62.6 °F 78% 29.90 in 10.0 mi SSW 10.4 mph - N/A   Clear
9:55 PM 69.8 °F 62.6 °F 78% 29.90 in 10.0 mi SSW 10.4 mph - N/A   Clear
10:15 PM 69.8 °F 62.6 °F 78% 29.90 in 10.0 mi WSW 9.2 mph - N/A   Partly Cloudy
10:35 PM 69.8 °F 62.6 °F 78% 29.90 in 10.0 mi WSW 6.9 mph - N/A   Mostly Cloudy
10:55 PM 69.8 °F 64.4 °F 83% 29.89 in 10.0 mi WSW 11.5 mph - N/A   Mostly Cloudy
11:15 PM 69.8 °F 64.4 °F 83% 29.89 in 10.0 mi West 9.2 mph - N/A   Mostly Cloudy
11:35 PM 69.8 °F 62.6 °F 78% 29.88 in 10.0 mi West 10.4 mph - N/A   Partly Cloudy
11:55 PM 69.8 °F 64.4 °F 83% 29.88 in 10.0 mi West 10.4 mph - N/A   Mostly Cloudy